FW6401 Weather Reports


time (UTC)temp
C
wind
direction
speed
KPH
gust
KPH
rain 1hr
cm
rain 24hr
cm
rain mn
cm
humidity
%
barometer
mb
20260505190014 25 215 12.9 33.8 0.00 0.00 0.00 40 1002.5
20260505184512 25 136 22.5 49.9 0.00 0.00 0.00 39 1002.3
20260505183011 25 234 14.5 29.0 0.00 0.00 0.00 39 1002.6
20260505181509 24 180 12.9 32.2 0.00 0.00 0.00 40 1002.9
20260505180008 23 182 16.1 41.8 0.00 0.00 0.00 42 1002.9
20260505174506 24 188 17.7 37.0 0.00 0.00 0.00 41 1003.3
20260505173004 23 201 16.1 33.8 0.00 0.00 0.00 43 1003.3
20260505171506 23 215 6.4 46.7 0.00 0.00 0.00 45 1003.7
20260505170002 23 287 20.9 45.1 0.00 0.15 0.00 45 1003.7
20260505164601 23 244 14.5 29.0 0.00 0.15 0.00 49 1004.4
20260505163102 22 240 27.4 46.7 0.00 0.15 0.00 47 1004.5
20260505161603 22 216 20.9 38.6 0.00 0.15 0.00 49 1004.8
20260505153047 21 217 8.0 25.7 0.00 0.25 0.00 54 1005.5
20260505151546 22 252 17.7 35.4 0.00 0.25 0.00 50 1005.9
20260505124526 18 228 16.1 30.6 0.00 0.25 0.00 56 1006.0
20260505123021 17 215 9.7 20.9 0.00 0.25 0.00 59 1006.3
20260505121530 16 201 9.7 22.5 0.00 0.25 0.00 61 1006.1
20260505120014 15 173 4.8 16.1 0.00 0.25 0.00 67 1006.4
20260505114510 12 178 6.4 12.9 0.00 0.25 0.00 73 1006.3
20260505113008 11 137 3.2 8.0 0.00 0.25 0.00 82 1006.6
20260505111508 11 298 1.6 4.8 0.00 0.25 0.00 81 1006.6
20260505101504 9 178 6.4 12.9 0.00 0.25 0.00 77 1006.4
20260505100009 10 216 4.8 12.9 0.00 0.25 0.00 76 1006.4
20260505094501 11 194 12.9 30.6 0.00 0.25 0.00 69 1006.5
20260505093102 10 177 6.4 17.7 0.00 0.25 0.00 73 1006.7
20260505091611 10 165 9.7 16.1 0.00 0.25 0.00 72 1006.6
20260505090105 10 185 6.4 16.1 0.00 0.25 0.00 72 1006.8
20260505084559 11 190 4.8 11.3 0.00 0.25 0.00 71 1006.8
20260505083101 11 137 6.4 17.7 0.00 0.25 0.00 70 1007.0
20260505081559 9 192 8.0 16.1 0.00 0.25 0.00 75 1007.1
20260505080052 10 181 8.0 16.1 0.00 0.25 0.00 72 1007.2
20260505074551 10 184 6.4 12.9 0.00 0.25 0.00 72 1007.2
20260505073049 10 190 9.7 16.1 0.00 0.25 0.00 71 1007.2
20260505071551 10 165 9.7 16.1 0.00 0.25 0.00 70 1007.1
20260505070047 10 172 9.7 14.5 0.00 0.25 0.00 70 1007.4
20260505064549 10 182 4.8 12.9 0.00 0.25 0.00 70 1007.4
20260505063045 10 180 6.4 12.9 0.00 0.25 0.00 69 1007.6
20260505061543 10 191 8.0 14.5 0.00 0.25 0.00 70 1007.7
20260505060041 10 168 8.0 12.9 0.00 0.25 0.00 71 1007.5
20260505054546 9 174 8.0 14.5 0.00 0.25 0.00 74 1007.3
20260505053037 8 165 6.4 11.3 0.00 0.25 0.00 78 1007.5
20260505051537 7 161 6.4 11.3 0.00 0.25 0.00 82 1007.6
20260505041527 8 160 6.4 11.3 0.00 0.25 0.00 79 1007.5
20260505040023 9 154 6.4 11.3 0.00 0.25 0.00 76 1007.3
20260505034524 10 175 6.4 16.1 0.00 0.25 0.25 73 1007.1
20260505033033 12 190 6.4 14.5 0.00 0.25 0.25 65 1007.2
20260505031522 11 180 8.0 12.9 0.00 0.25 0.25 68 1007.1
20260505030021 12 190 8.0 14.5 0.00 0.25 0.25 64 1007.0
20260505024527 13 198 8.0 17.7 0.00 0.25 0.25 59 1007.1
20260505023028 13 175 6.4 19.3 0.00 0.25 0.25 58 1007.1
20260505021519 15 209 11.3 17.7 0.00 0.25 0.25 51 1007.2
20260505020020 15 165 11.3 27.4 0.00 0.25 0.25 49 1007.4
20260505014532 16 151 9.7 25.7 0.00 0.25 0.25 47 1007.3
20260505013018 16 225 11.3 25.7 0.00 0.25 0.25 49 1007.3
20260505011517 15 226 14.5 29.0 0.00 0.25 0.25 49 1007.3
20260505010020 15 193 12.9 25.7 0.00 0.25 0.25 50 1007.2
20260505004518 16 198 12.9 32.2 0.00 0.25 0.25 50 1007.0
20260505003015 15 177 9.7 24.1 0.00 0.25 0.25 50 1006.7
20260505001515 15 195 9.7 19.3 0.00 0.25 0.25 52 1006.6
20260505000015 15 188 6.4 19.3 0.00 0.25 0.25 60 1006.4
20260504234512 15 213 6.4 16.1 0.00 0.25 0.25 55 1006.2
20260504233012 16 217 4.8 16.1 0.00 0.25 0.25 51 1006.0
20260504231511 16 190 6.4 16.1 0.00 0.25 0.25 53 1005.9
20260504230011 16 182 3.2 6.4 0.00 0.25 0.25 59 1005.7
20260504224510 16 289 1.6 6.4 0.00 0.25 0.25 54 1005.6
20260504223010 17 309 3.2 12.9 0.00 0.25 0.25 50 1005.5
20260504221511 17 341 3.2 19.3 0.00 0.25 0.25 50 1005.5
20260504220009 17 324 8.0 19.3 0.00 0.25 0.25 50 1005.5
20260504214507 16 295 11.3 24.1 0.00 0.25 0.25 52 1005.6
20260504213009 17 321 9.7 17.7 0.00 0.25 0.25 55 1005.6
20260504211513 16 266 8.0 16.1 0.00 0.25 0.25 57 1005.8
20260504210107 16 320 6.4 20.9 0.00 0.25 0.25 60 1005.8
20260504204618 15 319 8.0 16.1 0.00 0.25 0.25 61 1005.9
20260504203129 15 292 6.4 16.1 0.00 0.25 0.25 62 1006.1
20260504201553 15 349 11.3 19.3 0.00 0.25 0.25 66 1006.1
20260504200052 14 298 3.2 17.7 0.00 0.25 0.25 66 1006.2
20260504194548 13 300 6.4 20.9 0.00 0.25 0.25 68 1006.4
20260504193045 13 276 9.7 17.7 0.00 0.25 0.25 69 1006.7
20260504191543 12 314 14.5 22.5 0.00 0.25 0.25 74 1006.9
20260504190039 12 302 8.0 17.7 0.00 0.25 0.25 75 1007.1